Regional Weather Roundup
Issued by NWS

Home | Current Version | Previous Version | Graphics & Text | Print | Product List | Glossary On
Versions: 1 2 3 4 5 6 7 8 9 10 11 12 13 14 15 16 17 18 19 20 21 22 23 24 25 26 27 28 29 30 31 32 33 34 35 36 37 38 39 40 41 42 43 44 45 46 47 48 49 50
000
ASUS43 KLSX 200457
RWRMO

WEATHER SUMMARY FOR MISSOURI
NATIONAL WEATHER SERVICE SPRINGFIELD MO
1100 PM CST THU JAN 19 2017

NOTE: "FAIR" INDICATES FEW OR NO CLOUDS BELOW 12,000 FEET WITH NO
       SIGNIFICANT WEATHER AND/OR OBSTRUCTIONS TO VISIBILITY.
       CURRENT SKY AND/OR WEATHER CONDITIONS ARE NOT AVAILABLE FOR
       CHILLICOTHE AND FARMINGTON.

MOZ001>031-035>038-043-044-053-054-200600-
...NORTHERN AND WESTERN MISSOURI...

CITY           SKY/WX    TMP DP  RH WIND       PRES   REMARKS
KANSAS CTY INT DRZL/FOG  45  43  93 NE3       29.63F VSB 1/2
LEE`S SUMMIT   CLOUDY    46  45  96 N3        29.63F FOG
ST JOSEPH      FOG       44  44 100 NE5       29.64F VSB 3/4
CHILLICOTHE      N/A     44  44 100 CALM      29.65F

$$
MOZ066>068-077>081-088>096-101>105-200600-
...SOUTHWEST MISSOURI...

CITY           SKY/WX    TMP DP  RH WIND       PRES   REMARKS
SPRINGFIELD    CLOUDY    48  48 100 SW6       29.63S FOG
JOPLIN         CLOUDY    49  47  93 SE3       29.63F

$$
MOZ032>034-039>042-045>050-055>058-069>072-200600-
...CENTRAL MISSOURI...

CITY           SKY/WX    TMP DP  RH WIND       PRES   REMARKS
COLUMBIA       NOT AVBL
JEFFERSON CITY CLOUDY    48  47  96 E5        29.64F
ROLLA          FOG       47  47 100 CALM      29.61F VSB 1/2
SEDALIA        FOG       48  47  96 E5        29.65R VSB 1/4
WARRENSBURG    FOG       46  45  93 CALM      29.64S VSB 1/4

$$
MOZ051-052-059>065-200600-
...EAST CENTRAL MISSOURI...

CITY           SKY/WX    TMP DP  RH WIND       PRES   REMARKS
ST LOUIS INTL  LGT RAIN  48  46  93 N3        29.63F FOG

$$
MOZ072>076-082>087-097>100-106>115-200600-
...SOUTH CENTRAL AND SOUTHEAST MISSOURI...

CITY           SKY/WX    TMP DP  RH WIND       PRES   REMARKS
CAPE GIRARDEAU CLOUDY    55  53  93 SW9       29.66S
FARMINGTON     CLOUDY    48  48 100 S3        29.63F
POPLAR BLUFF   CLOUDY    50  50 100 SW7       29.66F FOG
WEST PLAINS    FOG       48  48 100 S6        29.67R VSB 3/4

$$



USA.gov is the U.S. government's official web portal to all federal, state and local government web resources and services.